Location: Doughton Park
(36.4224°N, 81.1835°W)
Time: 23:07:27
(UTC-05:00)

Amateur Radio Satellites - All Passes

Search period start: 27 November 2014 22:37
Search period end: 28 November 2014 22:37
Location: Doughton Park, 36.4224°N, 81.1835°W

Satellite Date Start Highest point End Downlink Frequencies (MHz)
Time Altitude Azimuth
UWE-3 27 Nov 22:38:57 22:42:25 24° 264° (W) 22:45:52 435.000/436.395/437.385
DX 1 27 Nov 22:40:28 22:42:46 14° 267° (W) 22:45:03 434.975-435.025
UNISAT 6 27 Nov 22:40:41 22:44:57 41° 99° (E) 22:49:16 437.425
JUGNU 27 Nov 22:41:37 22:43:35 12° 169° (S) 22:45:33 437.505
CUBEBUG 2 27 Nov 22:43:25 22:46:28 19° 265° (W) 22:49:29 437.445
DANDE 27 Nov 23:01:18 23:05:03 20° 78° (ENE) 23:09:34 436.750
POLYITAN 1 27 Nov 23:04:44 23:08:52 52° 100° (E) 23:13:00 437.675
QB50P2 27 Nov 23:05:56 23:10:05 53° 100° (E) 23:14:13 145.880/145.840
ANTELSAT 27 Nov 23:09:31 23:14:01 90° 103° (ESE) 23:18:37 437.575/2403.000
DUCHIFAT 1 27 Nov 23:10:37 23:14:47 60° 101° (E) 23:18:56 145.980
ZACube-1 27 Nov 23:11:21 23:13:12 13° 267° (W) 23:15:02 437.345
TISAT 1 27 Nov 23:13:37 23:17:25 32° 71° (ENE) 23:21:12 437.305
VELOX 1 27 Nov 23:18:15 23:21:20 18° 266° (W) 23:24:26 145.980
ESTCUBE 1 27 Nov 23:22:35 23:26:55 44° 261° (W) 23:31:17 437.505/2401.250
ISS 27 Nov 23:28:15 23:31:12 30° 326° (NW) 23:34:09 145.825
SPROUT 27 Nov 23:29:28 23:33:32 42° 73° (ENE) 23:37:37 437.525
NANOSAT C BR1 27 Nov 23:30:21 23:34:35 77° 284° (WNW) 23:38:47 145.865
QB50P1 27 Nov 23:40:37 23:44:46 57° 285° (WNW) 23:48:53 145.935-145.965
BUGSAT 1 27 Nov 23:40:39 23:44:42 70° 284° (WNW) 23:48:42 437.445
CUBEBUG 1 27 Nov 23:50:34 23:54:03 22° 265° (W) 23:57:32 437.445
BEESAT 28 Nov 00:01:24 00:04:28 17° 65° (ENE) 00:07:32 436.000
TIGRISAT 28 Nov 00:03:07 00:06:41 24° 290° (WNW) 00:10:18 435.000
POPSAT HIP 1 28 Nov 00:06:08 00:09:46 29° 289° (WNW) 00:13:24 437.405
CUSAT 1 28 Nov 00:08:22 00:13:29 81° 263° (W) 00:20:20 437.405
UNISAT 6 28 Nov 00:18:34 00:21:25 17° 293° (WNW) 00:24:18 437.425
JUGNU 28 Nov 00:28:28 00:31:47 15° 179° (S) 00:35:06 437.505
AUBIESAT-1 28 Nov 00:36:12 00:40:12 64° 70° (ENE) 00:44:37 437.475
Oscar 19 28 Nov 00:38:30 00:40:15 12° 91° (E) 00:42:00 437.125/150
RS-15 28 Nov 00:40:54 00:51:59 58° 54° (NE) 01:03:30 29.354- 29.394
POLYITAN 1 28 Nov 00:42:44 00:44:21 12° 295° (WNW) 00:45:59 437.675
M-CUBED/EXP-1 PRIME 28 Nov 00:42:54 00:46:56 85° 72° (ENE) 00:51:24 437.505
SRMSAT 28 Nov 00:43:31 00:46:25 14° 172° (S) 00:49:20 437.500
DANDE 28 Nov 00:43:38 00:48:24 45° 264° (W) 00:54:43 436.750
QB50P2 28 Nov 00:44:02 00:45:31 12° 295° (WNW) 00:46:59 145.880/145.840
MaSat-1 28 Nov 00:48:46 00:51:03 49° 248° (WSW) 00:53:27 437.345
DUCHIFAT 1 28 Nov 00:49:26 00:50:07 10° 296° (WNW) 00:50:47 145.980
TISAT 1 28 Nov 00:50:18 00:53:17 18° 265° (W) 00:56:16 437.305
ITUPSAT 1 28 Nov 00:56:23 01:01:08 63° 74° (ENE) 01:05:54 437.325
SWISSCUBE 28 Nov 01:06:26 01:11:14 89° 78° (ENE) 01:16:05 437.505
SPROUT 28 Nov 01:07:30 01:09:48 14° 267° (W) 01:12:06 437.525
YUBILEINY 28 Nov 01:22:32 01:29:22 26° 83° (E) 01:36:10 435.215
KKS-1 28 Nov 01:30:23 01:34:10 28° 70° (ENE) 01:37:57 437.445
ITAMSAT 1 28 Nov 01:35:01 01:38:11 16° 93° (E) 01:41:19 435.822/435.867
BEESAT 28 Nov 01:37:20 01:41:55 46° 260° (W) 01:46:32 436.000
Oscar 19 28 Nov 02:14:53 02:20:02 70° 285° (WNW) 02:25:10 437.125/150
JUGNU 28 Nov 02:17:32 02:20:00 13° 189° (S) 02:22:29 437.505
Gurwin Techsat 1B 28 Nov 02:18:37 02:23:01 26° 96° (E) 02:27:23 435.225
STARS 28 Nov 02:20:57 02:25:19 71° 75° (ENE) 02:29:42 437.465
SRMSAT 28 Nov 02:31:25 02:34:49 16° 183° (S) 02:38:12 437.500
ITUPSAT 1 28 Nov 02:37:48 02:39:24 12° 269° (W) 02:41:00 437.325
HORYU 2 28 Nov 02:42:57 02:45:51 17° 94° (E) 02:48:44 437.375
RS-15 28 Nov 02:53:51 03:03:53 39° 253° (WSW) 03:14:20 29.354- 29.394
KKS-1 28 Nov 03:07:13 03:10:45 23° 264° (W) 03:14:17 437.445
PCSat 28 Nov 03:12:22 03:14:37 12° 45° (NE) 03:16:51 145.827
ITAMSAT 1 28 Nov 03:12:56 03:17:56 52° 288° (WNW) 03:22:55 435.822/435.867
YUBILEINY 28 Nov 03:16:48 03:25:28 60° 280° (W) 03:34:08 435.215
SO-50 28 Nov 03:28:38 03:33:06 75° 301° (WNW) 03:37:45 436.795
Gurwin Techsat 1B 28 Nov 03:58:13 04:02:58 34° 290° (WNW) 04:07:42 435.225
AIST 2 28 Nov 04:02:46 04:03:45 11° 44° (NE) 04:04:44 435.215
AO-7 28 Nov 04:15:19 04:23:24 50° 102° (ESE) 04:31:25 29.400- 29.500
HORYU 2 28 Nov 04:18:27 04:22:38 39° 288° (WNW) 04:26:49 437.375
SRMSAT 28 Nov 04:21:43 04:23:11 11° 193° (SSW) 04:24:39 437.500
ISS 28 Nov 04:22:40 04:24:41 15° 26° (NNE) 04:26:42 145.825
MOZHAYETS 4 28 Nov 04:26:22 04:30:52 60° 75° (ENE) 04:35:26
O/OREOS (USA 219) 28 Nov 04:35:39 04:38:12 15° 99° (E) 04:40:45 437.305
BEESAT 3 28 Nov 04:36:47 04:40:50 45° 57° (ENE) 04:44:48 437.485
JAS-2 28 Nov 04:36:53 04:42:02 23° 91° (E) 04:46:43 435.910
PRISM 28 Nov 04:51:02 04:53:58 19° 68° (ENE) 04:56:56 437.425
PCSat 28 Nov 04:53:24 04:58:52 83° 63° (ENE) 05:04:16 145.827
BEESAT 2 28 Nov 04:54:02 04:58:13 64° 59° (ENE) 05:02:20 435.950
AIST 2 28 Nov 05:38:41 05:43:00 86° 241° (WSW) 05:47:13 435.215
ISS 28 Nov 05:58:22 06:01:39 74° 223° (SW) 06:04:56 145.825
STRAND 1 28 Nov 06:02:21 06:07:13 45° 72° (ENE) 06:12:06 437.568
MOZHAYETS 4 28 Nov 06:07:06 06:08:27 11° 269° (W) 06:09:49
AO-7 28 Nov 06:08:33 06:15:50 35° 299° (WNW) 06:23:07 29.400- 29.500
Cubesat XI-IV 28 Nov 06:09:50 06:14:42 36° 98° (E) 06:19:32 437.490
O/OREOS (USA 219) 28 Nov 06:12:56 06:17:12 42° 294° (WNW) 06:21:27 437.305
CUBESAT XI-V 28 Nov 06:14:10 06:18:48 59° 75° (ENE) 06:23:28 437.345
BEESAT 3 28 Nov 06:16:29 06:18:37 14° 252° (WSW) 06:20:44 437.485
JAS-2 28 Nov 06:20:51 06:27:29 51° 290° (WNW) 06:33:20 435.910
PRISM 28 Nov 06:25:31 06:29:16 32° 262° (W) 06:33:04 437.425
PCSat 28 Nov 06:40:27 06:41:28 11° 258° (WSW) 06:42:29 145.827
CUTE-I 28 Nov 06:50:13 06:55:34 88° 104° (ESE) 07:00:52 437.470
AIST 1 28 Nov 06:55:24 06:59:47 86° 83° (E) 07:04:06
GONETS M04 28 Nov 07:12:35 07:19:47 30° 84° (E) 07:27:02
STRAND 1 28 Nov 07:43:01 07:46:34 19° 266° (W) 07:50:08 437.568
Cubesat XI-IV 28 Nov 07:50:17 07:54:35 26° 293° (WNW) 07:58:51 437.490
CUBESAT XI-V 28 Nov 07:54:51 07:56:35 12° 269° (W) 07:58:20 437.345
HO-68 28 Nov 07:57:15 08:01:13 15° 91° (E) 08:05:09 435.675
CUTE-I 28 Nov 08:33:35 08:34:49 11° 300° (WNW) 08:36:03 437.470
COMPASS 1 28 Nov 08:39:16 08:42:04 17° 94° (E) 08:44:51 437.405
GOMX 1 28 Nov 08:40:28 08:43:09 16° 94° (E) 08:45:52 467.674
CANX-2 28 Nov 08:41:09 08:44:50 27° 96° (E) 08:48:31 2200.000
GONETS M04 28 Nov 09:07:31 09:16:03 54° 282° (WNW) 09:24:42
CUTE 1.7 + AOD 2 28 Nov 09:15:00 09:19:17 65° 101° (E) 09:23:33 437.475
BRITE-PL 28 Nov 09:20:24 09:24:33 71° 102° (ESE) 09:28:49 437.365/2234.400
POPSAT HIP 1 28 Nov 09:23:22 09:24:58 12° 65° (ENE) 09:26:34 437.405
DOVE 4 28 Nov 09:23:49 09:27:47 39° 99° (E) 09:31:54 437.250
TIGRISAT 28 Nov 09:24:00 09:26:51 18° 68° (ENE) 09:29:42 435.000
ZACube-1 28 Nov 09:27:03 09:27:26 10° 92° (E) 09:27:50 437.345
UNISAT 6 28 Nov 09:38:16 09:41:49 26° 70° (ENE) 09:45:23 437.425
CINEMA 3 28 Nov 09:41:22 09:45:20 37° 98° (E) 09:49:26 145.822/145.860
HO-68 28 Nov 09:42:24 09:49:36 82° 287° (WNW) 09:56:44 435.675
SEEDS 28 Nov 09:44:53 09:49:07 64° 284° (WNW) 09:53:21 437.485
DELFI C3 28 Nov 09:49:20 09:53:15 40° 99° (E) 09:57:08 145.870
UKube-1 28 Nov 09:51:10 09:55:17 41° 99° (E) 09:59:22 .
POLYITAN 1 28 Nov 09:56:09 09:59:50 29° 71° (ENE) 10:03:30 437.675
AAUSAT CUBESAT 2 28 Nov 09:56:38 10:00:50 63° 285° (WNW) 10:05:01 437.432
QB50P2 28 Nov 09:57:06 10:00:48 30° 71° (ENE) 10:04:30 145.880/145.840
50 SAT 28 Nov 09:58:27 09:59:30 11° 92° (E) 10:00:33 437.505
FUNcube-1 28 Nov 09:58:30 10:02:04 25° 96° (E) 10:05:41 145.935
Oscar 11 28 Nov 10:00:23 10:04:43 67° 101° (E) 10:09:03 145.826/435.025
DUCHIFAT 1 28 Nov 10:01:21 10:05:08 32° 72° (ENE) 10:08:56 145.980
AISAT 28 Nov 10:02:45 10:05:41 17° 94° (E) 10:08:37 437.250
ANTELSAT 28 Nov 10:06:37 10:10:47 57° 75° (ENE) 10:14:59 437.575/2403.000
COMPASS 1 28 Nov 10:14:01 10:17:52 34° 288° (WNW) 10:21:43 437.405
CANX-2 28 Nov 10:17:18 10:20:37 22° 291° (WNW) 10:23:55 2200.000
GOMX 1 28 Nov 10:17:34 10:21:21 34° 287° (WNW) 10:25:15 467.674
NANOSAT C BR1 28 Nov 10:20:46 10:24:56 56° 75° (ENE) 10:29:06 145.865
HUMSAT D 28 Nov 10:24:25 10:28:06 29° 97° (E) 10:31:49 437.325/437.525
BUGSAT 1 28 Nov 10:28:15 10:32:25 57° 75° (ENE) 10:36:34 437.445
DX 1 28 Nov 10:29:11 10:33:29 66° 285° (WNW) 10:37:46 434.975-435.025
UWE-3 28 Nov 10:30:27 10:34:44 75° 102° (ESE) 10:39:07 435.000/436.395/437.385
QB50P1 28 Nov 10:30:57 10:35:11 76° 76° (ENE) 10:39:26 145.935-145.965
CUBEBUG 2 28 Nov 10:35:33 10:39:50 81° 283° (WNW) 10:44:15 437.445
CUTE 1.7 + AOD 2 28 Nov 10:54:24 10:54:38 10° 296° (WNW) 10:54:52 437.475
POPSAT HIP 1 28 Nov 10:56:14 11:00:24 53° 260° (W) 11:04:33 437.405
TIGRISAT 28 Nov 10:59:30 11:03:21 33° 262° (W) 11:07:12 435.000
ZACube-1 28 Nov 10:59:55 11:04:06 57° 285° (WNW) 11:08:23 437.345
DOVE 4 28 Nov 11:02:49 11:05:17 15° 292° (WNW) 11:07:48 437.250
VELOX 1 28 Nov 11:10:10 11:14:36 78° 284° (WNW) 11:18:59 145.980
UNISAT 6 28 Nov 11:15:15 11:18:34 22° 265° (W) 11:21:54 437.425
ESTCUBE 1 28 Nov 11:18:01 11:22:23 45° 99° (E) 11:26:42 437.505/2401.250
CINEMA 3 28 Nov 11:19:34 11:22:17 17° 292° (WNW) 11:25:03 145.822/145.860
DELFI C3 28 Nov 11:25:55 11:28:11 15° 293° (WNW) 11:30:26 145.870
UKube-1 28 Nov 11:28:32 11:31:05 16° 294° (WNW) 11:33:38 .
50 SAT 28 Nov 11:31:06 11:35:02 48° 286° (WNW) 11:38:59 437.505
POLYITAN 1 28 Nov 11:32:37 11:35:46 20° 265° (W) 11:38:55 437.675
HO-68 28 Nov 11:32:45 11:36:11 14° 305° (NW) 11:39:36 435.675
QB50P2 28 Nov 11:33:37 11:36:44 20° 265° (W) 11:39:50 145.880/145.840
FUNcube-1 28 Nov 11:34:54 11:38:18 24° 290° (WNW) 11:41:45 145.935
DUCHIFAT 1 28 Nov 11:38:09 11:41:03 18° 266° (W) 11:43:57 145.980
AISAT 28 Nov 11:38:23 11:42:25 36° 288° (WNW) 11:46:26 437.250
CUBEBUG 1 28 Nov 11:41:15 11:45:38 83° 102° (ESE) 11:49:57 437.445
Oscar 19 28 Nov 11:52:53 11:55:33 14° 63° (ENE) 11:58:13 437.125/150
HUMSAT D 28 Nov 12:00:41 12:03:43 20° 291° (WNW) 12:06:45 437.325/437.525
NANOSAT C BR1 28 Nov 12:00:48 12:01:07 10° 269° (W) 12:01:27 145.865
SO-50 28 Nov 12:02:30 12:07:15 49° 56° (NE) 12:11:59 436.795
BUGSAT 1 28 Nov 12:07:57 12:08:13 10° 268° (W) 12:08:28 437.445
DANDE 28 Nov 12:17:03 12:18:25 13° 93° (E) 12:19:45 436.750
M-CUBED/EXP-1 PRIME 28 Nov 12:31:40 12:32:38 11° 94° (E) 12:33:37 437.505
TISAT 1 28 Nov 12:36:33 12:40:47 86° 103° (ESE) 12:44:58 437.305
ITAMSAT 1 28 Nov 12:50:33 12:54:19 21° 66° (ENE) 12:58:06 435.822/435.867
SPROUT 28 Nov 12:54:41 12:58:56 66° 284° (WNW) 13:03:10 437.525
ESTCUBE 1 28 Nov 12:56:13 12:58:51 15° 294° (WNW) 13:01:28 437.505/2401.250
VERMONT LUNAR 28 Nov 12:57:27 13:00:45 35° 150° (SSE) 13:04:05 437.305
PHONESAT 2.4 28 Nov 12:57:32 13:00:36 25° 147° (SSE) 13:03:42 2401.200-2431.200
ITUPSAT 1 28 Nov 13:00:44 13:04:15 20° 94° (E) 13:07:45 437.325
SWISSCUBE 28 Nov 13:10:08 13:14:15 28° 97° (E) 13:18:20 437.505
CUSAT 1 28 Nov 13:21:26 13:23:45 26° 282° (WNW) 13:26:02 437.405
AO-7 28 Nov 13:28:11 13:28:27 10° 47° (NE) 13:28:42 29.400- 29.500
Oscar 19 28 Nov 13:29:16 13:34:19 63° 259° (WSW) 13:39:24 437.125/150
YUBILEINY 28 Nov 13:30:05 13:38:41 61° 80° (E) 13:47:13 435.215
Gurwin Techsat 1B 28 Nov 13:37:13 13:41:53 33° 69° (ENE) 13:46:35 435.225
BEESAT 28 Nov 13:40:09 13:44:52 55° 101° (E) 13:49:32 436.000
HORYU 2 28 Nov 13:40:47 13:42:30 12° 64° (ENE) 13:44:12 437.375
SO-50 28 Nov 13:44:10 13:47:24 18° 251° (WSW) 13:50:38 436.795
AUBIESAT-1 28 Nov 13:56:02 14:00:58 84° 107° (ESE) 14:05:40 437.475
M-CUBED/EXP-1 PRIME 28 Nov 14:03:13 14:08:09 75° 289° (WNW) 14:12:53 437.505
MaSat-1 28 Nov 14:13:54 14:16:42 35° 111° (ESE) 14:19:16 437.345
STARS 28 Nov 14:15:00 14:17:42 16° 94° (E) 14:20:24 437.465
ITAMSAT 1 28 Nov 14:28:30 14:33:28 44° 261° (W) 14:38:26 435.822/435.867
PHONESAT 2.4 28 Nov 14:35:28 14:39:10 77° 342° (NNW) 14:42:54 2401.200-2431.200
VERMONT LUNAR 28 Nov 14:35:33 14:39:08 61° 345° (NNW) 14:42:44 437.305
ITUPSAT 1 28 Nov 14:37:49 14:42:13 37° 289° (WNW) 14:46:35 437.325
O/OREOS (USA 219) 28 Nov 14:46:43 14:50:03 20° 60° (ENE) 14:53:24 437.305
SWISSCUBE 28 Nov 14:48:01 14:51:59 27° 291° (WNW) 14:55:56 437.505
JAS-2 28 Nov 14:49:48 14:51:13 11° 54° (NE) 14:52:38 435.910
KKS-1 28 Nov 14:59:59 15:04:26 83° 103° (ESE) 15:08:52 437.445
RS-15 28 Nov 15:01:42 15:11:55 46° 109° (ESE) 15:22:01 29.354- 29.394
AO-7 28 Nov 15:11:22 15:19:20 54° 66° (ENE) 15:27:21 29.400- 29.500
HORYU 2 28 Nov 15:14:18 15:18:38 57° 259° (W) 15:23:01 437.375
Gurwin Techsat 1B 28 Nov 15:17:20 15:21:48 27° 264° (W) 15:26:18 435.225
BEESAT 28 Nov 15:19:40 15:22:12 15° 296° (WNW) 15:24:45 436.000
YUBILEINY 28 Nov 15:28:08 15:34:45 25° 278° (W) 15:41:21 435.215
AUBIESAT-1 28 Nov 15:33:42 15:35:10 11° 303° (WNW) 15:36:37 437.475
STARS 28 Nov 15:50:13 15:54:19 39° 288° (WNW) 15:58:23 437.465
VERMONT LUNAR 28 Nov 16:14:28 16:17:55 42° 3° (N) 16:21:23 437.305
PHONESAT 2.4 28 Nov 16:14:40 16:18:14 42° 359° (N) 16:21:47 2401.200-2431.200
MOZHAYETS 4 28 Nov 16:25:22 16:28:30 18° 93° (E) 16:31:37
O/OREOS (USA 219) 28 Nov 16:25:29 16:29:30 33° 256° (WSW) 16:33:31 437.305
JAS-2 28 Nov 16:27:09 16:34:36 58° 71° (ENE) 16:42:15 435.910
CUTE-I 28 Nov 16:33:06 16:35:34 13° 62° (ENE) 16:38:01 437.470
AO-7 28 Nov 17:05:20 17:12:21 30° 263° (W) 17:19:26 29.400- 29.500
RS-15 28 Nov 17:13:41 17:24:07 48° 310° (NW) 17:34:37 29.354- 29.394
GONETS M04 28 Nov 17:28:27 17:30:56 11° 60° (ENE) 17:33:24
Cubesat XI-IV 28 Nov 17:29:19 17:34:25 47° 71° (ENE) 17:39:32 437.490
PCSat 28 Nov 17:52:01 17:54:58 15° 104° (ESE) 17:57:56 145.827
VERMONT LUNAR 28 Nov 17:53:00 17:56:38 82° 19° (NNE) 18:00:15 437.305
PHONESAT 2.4 28 Nov 17:53:37 17:57:20 66° 16° (NNE) 18:01:01 2401.200-2431.200
MOZHAYETS 4 28 Nov 18:01:30 18:05:50 39° 288° (WNW) 18:10:09
CUTE-I 28 Nov 18:09:36 18:14:57 74° 257° (WSW) 18:20:19 437.470
PRISM 28 Nov 18:11:00 18:15:02 42° 99° (E) 18:19:01 437.425
JAS-2 28 Nov 18:13:34 18:19:51 28° 267° (W) 18:26:21 435.910
CUBESAT XI-V 28 Nov 18:14:51 18:18:01 18° 93° (E) 18:21:10 437.345
STRAND 1 28 Nov 18:16:31 18:20:00 18° 94° (E) 18:23:28 437.568
BEESAT 3 28 Nov 18:30:53 18:33:27 16° 109° (ESE) 18:36:02 437.485
BEESAT 2 28 Nov 18:48:00 18:51:14 23° 111° (ESE) 18:54:32 435.950
Cubesat XI-IV 28 Nov 19:10:56 19:14:42 19° 266° (W) 19:18:28 437.490
GONETS M04 28 Nov 19:20:41 19:29:31 69° 81° (E) 19:38:12
AIST 1 28 Nov 19:22:10 19:26:29 58° 94° (E) 19:30:50
VERMONT LUNAR 28 Nov 19:31:58 19:34:50 22° 214° (SW) 19:37:42 437.305
PCSat 28 Nov 19:32:26 19:37:46 63° 299° (WNW) 19:43:10 145.827
PHONESAT 2.4 28 Nov 19:32:38 19:35:59 32° 211° (SSW) 19:39:19 2401.200-2431.200
CANX-2 28 Nov 19:33:16 19:35:43 15° 67° (ENE) 19:38:11 2200.000
RS-15 28 Nov 19:33:56 19:40:14 16° 340° (NNW) 19:46:36 29.354- 29.394
AIST 2 28 Nov 19:34:57 19:38:49 37° 114° (ESE) 19:42:46 435.215
GOMX 1 28 Nov 19:47:02 19:49:48 16° 68° (ENE) 19:52:28 467.674
PRISM 28 Nov 19:47:53 19:50:12 15° 294° (WNW) 19:52:30 437.425
CUBESAT XI-V 28 Nov 19:51:17 19:55:35 38° 288° (WNW) 19:59:50 437.345
STRAND 1 28 Nov 19:54:31 19:59:22 45° 288° (WNW) 20:04:10 437.568
CUTE 1.7 + AOD 2 28 Nov 20:06:00 20:09:46 33° 72° (ENE) 20:13:33 437.475
BEESAT 3 28 Nov 20:07:30 20:11:19 38° 305° (NW) 20:15:14 437.485
HO-68 28 Nov 20:07:41 20:14:42 59° 70° (ENE) 20:21:44 435.675
BEESAT 2 28 Nov 20:25:48 20:29:22 28° 307° (NW) 20:33:00 435.950
DOVE 4 28 Nov 20:27:37 20:31:37 31° 72° (ENE) 20:35:27 437.250
BRITE-PL 28 Nov 20:28:31 20:33:27 65° 76° (ENE) 20:38:01 437.365/2234.400
SEEDS 28 Nov 20:34:44 20:38:51 63° 76° (ENE) 20:43:02 437.485
DELFI C3 28 Nov 20:36:42 20:39:35 19° 69° (ENE) 20:42:30 145.870
CINEMA 3 28 Nov 20:41:38 20:45:13 26° 71° (ENE) 20:48:43 145.822/145.860
UKube-1 28 Nov 20:44:20 20:47:59 27° 70° (ENE) 20:51:38 .
AAUSAT CUBESAT 2 28 Nov 20:45:26 20:49:31 62° 75° (ENE) 20:53:39 437.432
Oscar 11 28 Nov 20:52:58 20:56:55 37° 72° (ENE) 21:00:53 145.826/435.025
FUNcube-1 28 Nov 20:53:40 20:56:05 15° 67° (ENE) 20:58:28 145.935
AISAT 28 Nov 21:00:00 21:02:01 13° 65° (ENE) 21:04:01 437.250
COMPASS 1 28 Nov 21:02:51 21:06:59 69° 259° (W) 21:11:10 437.405
ISS 28 Nov 21:03:39 21:05:00 12° 127° (SE) 21:06:22 145.825
AIST 1 28 Nov 21:03:44 21:04:32 10° 290° (WNW) 21:05:19
CANX-2 28 Nov 21:07:22 21:11:19 39° 262° (W) 21:15:17 2200.000
AIST 2 28 Nov 21:14:25 21:17:34 20° 310° (NW) 21:20:45 435.215
HUMSAT D 28 Nov 21:15:43 21:18:15 16° 68° (ENE) 21:20:47 437.325/437.525
GONETS M04 28 Nov 21:19:09 21:25:24 22° 279° (W) 21:31:37
DX 1 28 Nov 21:22:10 21:26:32 77° 76° (ENE) 21:30:55 434.975-435.025
GOMX 1 28 Nov 21:23:05 21:27:37 44° 261° (W) 21:31:54 467.674
UWE-3 28 Nov 21:25:45 21:29:44 43° 74° (ENE) 21:33:41 435.000/436.395/437.385
CUBEBUG 2 28 Nov 21:31:46 21:35:57 60° 75° (ENE) 21:40:04 437.445
CUTE 1.7 + AOD 2 28 Nov 21:42:58 21:45:45 17° 266° (W) 21:48:34 437.475
RS-15 28 Nov 21:53:01 21:59:20 16° 19° (NNE) 22:05:44 29.354- 29.394
ZACube-1 28 Nov 21:53:40 21:57:52 81° 77° (ENE) 22:02:02 437.345
HO-68 28 Nov 21:57:16 22:02:44 23° 266° (W) 22:08:14 435.675
ANTELSAT 28 Nov 22:02:30 22:05:10 15° 93° (E) 22:07:52 437.575/2403.000
VELOX 1 28 Nov 22:05:27 22:09:54 69° 75° (ENE) 22:14:21 145.980
DOVE 4 28 Nov 22:06:02 22:09:24 20° 264° (W) 22:12:39 437.250
BRITE-PL 28 Nov 22:10:52 22:12:12 11° 268° (W) 22:13:31 437.365/2234.400
DELFI C3 28 Nov 22:11:09 22:14:41 28° 263° (W) 22:18:14 145.870
NANOSAT C BR1 28 Nov 22:11:21 22:12:31 11° 92° (E) 22:13:41 145.865
ESTCUBE 1 28 Nov 22:15:37 22:19:38 32° 71° (ENE) 22:23:40 437.505/2401.250
50 SAT 28 Nov 22:17:19 22:21:19 74° 76° (ENE) 22:25:21 437.505
CINEMA 3 28 Nov 22:18:55 22:22:22 23° 264° (W) 22:25:44 145.822/145.860
CUSAT 1 28 Nov 22:19:13 22:21:09 12° 74° (ENE) 22:23:15 437.405
QB50P1 28 Nov 22:20:34 22:22:59 15° 93° (E) 22:25:23 145.935-145.965
UKube-1 28 Nov 22:20:37 22:24:05 23° 264° (W) 22:27:33 .
JUGNU 28 Nov 22:26:20 22:28:38 12° 170° (S) 22:30:55 437.505
FUNcube-1 28 Nov 22:28:12 22:32:07 38° 262° (W) 22:36:00 145.935
Oscar 11 28 Nov 22:30:32 22:33:12 16° 267° (W) 22:35:52 145.826/435.025
